Time,TemperatureF,DewpointF,PressureIn,WindDirection,WindDirectionDegrees,WindSpeedMPH,WindSpeedGustMPH,Humidity,HourlyPrecipIn,Conditions,Clouds,dailyrainin,SoftwareType,DateUTC
2013-03-05 00:02:00,27.0,22.0,30.13,ENE,63,0.0,0.0,80,0.00,,,0.00,,2013-03-05 05:02:00,
2013-03-05 00:12:00,27.0,22.0,30.13,ENE,63,0.0,0.0,80,0.00,,,0.00,,2013-03-05 05:12:00,
2013-03-05 00:22:00,26.0,22.0,30.13,ENE,64,0.0,0.0,83,0.00,,,0.00,,2013-03-05 05:22:00,
2013-03-05 00:32:00,27.0,24.0,30.13,ENE,64,0.0,0.0,87,0.00,,,0.00,,2013-03-05 05:32:00,
2013-03-05 00:42:00,27.0,24.0,30.13,ENE,64,0.0,0.0,87,0.00,,,0.00,,2013-03-05 05:42:00,
2013-03-05 00:52:00,27.0,23.0,30.13,ENE,64,0.0,0.0,85,0.00,,,0.00,,2013-03-05 05:52:00,
2013-03-05 01:01:00,27.0,23.0,30.13,ENE,64,0.0,0.0,86,0.00,,,0.00,,2013-03-05 06:01:00,
2013-03-05 01:11:00,27.0,23.0,30.13,ENE,64,0.0,0.0,86,0.00,,,0.00,,2013-03-05 06:11:00,
2013-03-05 01:22:00,25.0,20.0,30.12,ENE,64,0.0,0.0,82,0.00,,,0.00,,2013-03-05 06:22:00,
2013-03-05 01:32:00,25.0,21.0,30.12,ENE,64,0.0,1.0,84,0.00,,,0.00,,2013-03-05 06:32:00,
2013-03-05 01:42:00,25.0,21.0,30.12,ENE,64,0.0,1.0,84,0.00,,,0.00,,2013-03-05 06:42:00,
2013-03-05 01:52:00,26.0,22.0,30.12,ENE,75,1.0,5.0,85,0.00,,,0.00,,2013-03-05 06:52:00,
2013-03-05 02:01:00,25.0,21.0,30.12,NE,49,0.0,3.0,85,0.00,,,0.00,,2013-03-05 07:01:00,
2013-03-05 02:11:00,25.0,21.0,30.12,NE,49,0.0,3.0,85,0.00,,,0.00,,2013-03-05 07:11:00,
2013-03-05 02:22:00,25.0,21.0,30.12,East,85,1.0,4.0,85,0.00,,,0.00,,2013-03-05 07:22:00,
2013-03-05 02:32:00,25.0,21.0,30.11,East,80,0.0,4.0,85,0.00,,,0.00,,2013-03-05 07:32:00,
2013-03-05 02:42:00,25.0,21.0,30.11,East,80,0.0,4.0,85,0.00,,,0.00,,2013-03-05 07:42:00,
2013-03-05 02:51:00,25.0,21.0,30.11,NE,49,0.0,3.0,86,0.00,,,0.00,,2013-03-05 07:51:00,
2013-03-05 03:02:00,25.0,22.0,30.11,North,350,1.0,2.0,87,0.00,,,0.00,,2013-03-05 08:02:00,
2013-03-05 03:11:00,25.0,22.0,30.11,North,350,1.0,2.0,87,0.00,,,0.00,,2013-03-05 08:11:00,
2013-03-05 03:21:00,25.0,22.0,30.10,East,95,0.0,2.0,87,0.00,,,0.00,,2013-03-05 08:21:00,
2013-03-05 03:32:00,25.0,22.0,30.10,NE,47,2.0,6.0,88,0.00,,,0.00,,2013-03-05 08:32:00,
2013-03-05 03:42:00,25.0,22.0,30.10,NE,47,2.0,6.0,88,0.00,,,0.00,,2013-03-05 08:42:00,
2013-03-05 03:52:00,24.0,21.0,30.10,North,4,1.0,4.0,88,0.00,,,0.00,,2013-03-05 08:52:00,
2013-03-05 04:01:00,24.0,21.0,30.09,NE,39,2.0,3.0,88,0.00,,,0.00,,2013-03-05 09:01:00,
2013-03-05 04:11:00,24.0,21.0,30.09,NE,39,2.0,3.0,88,0.00,,,0.00,,2013-03-05 09:11:00,
2013-03-05 04:21:00,24.0,21.0,30.09,East,93,0.0,3.0,89,0.00,,,0.00,,2013-03-05 09:21:00,
2013-03-05 04:32:00,24.0,21.0,30.09,ENE,75,1.0,3.0,89,0.00,,,0.00,,2013-03-05 09:32:00,
2013-03-05 04:43:00,24.0,21.0,30.09,ENE,75,1.0,3.0,89,0.00,,,0.00,,2013-03-05 09:43:00,
2013-03-05 04:52:00,24.0,21.0,30.08,East,98,3.0,7.0,88,0.00,,,0.00,,2013-03-05 09:52:00,
2013-03-05 05:01:00,24.0,21.0,30.07,ENE,78,2.0,6.0,87,0.00,,,0.00,,2013-03-05 10:01:00,
2013-03-05 05:11:00,24.0,21.0,30.07,ENE,78,2.0,6.0,87,0.00,,,0.00,,2013-03-05 10:11:00,
2013-03-05 05:22:00,24.0,20.0,30.07,SE,141,1.0,7.0,85,0.00,,,0.00,,2013-03-05 10:22:00,
2013-03-05 05:32:00,24.0,20.0,30.07,ENE,74,1.0,3.0,85,0.00,,,0.00,,2013-03-05 10:32:00,
2013-03-05 05:42:00,24.0,20.0,30.07,ENE,74,1.0,3.0,85,0.00,,,0.00,,2013-03-05 10:42:00,
2013-03-05 05:52:00,24.0,20.0,30.07,ENE,58,1.0,6.0,85,0.00,,,0.00,,2013-03-05 10:52:00,
2013-03-05 06:02:00,24.0,20.0,30.07,ESE,113,2.0,5.0,85,0.00,,,0.00,,2013-03-05 11:02:00,
2013-03-05 06:11:00,24.0,20.0,30.07,ESE,113,2.0,5.0,85,0.00,,,0.00,,2013-03-05 11:11:00,
2013-03-05 06:22:00,24.0,20.0,30.07,SE,130,2.0,6.0,86,0.00,,,0.00,,2013-03-05 11:22:00,
2013-03-05 06:32:00,24.0,20.0,30.07,East,96,2.0,5.0,86,0.00,,,0.00,,2013-03-05 11:32:00,
2013-03-05 06:42:00,24.0,20.0,30.07,East,96,2.0,5.0,86,0.00,,,0.00,,2013-03-05 11:42:00,
2013-03-05 06:52:00,24.0,20.0,30.06,ENE,63,4.0,8.0,86,0.00,,,0.00,,2013-03-05 11:52:00,
2013-03-05 07:02:00,25.0,21.0,30.06,NNE,26,2.0,7.0,86,0.00,,,0.00,,2013-03-05 12:02:00,
2013-03-05 07:12:00,25.0,21.0,30.06,NNE,26,2.0,7.0,86,0.00,,,0.00,,2013-03-05 12:12:00,
2013-03-05 07:22:00,25.0,21.0,30.06,East,85,5.0,12.0,86,0.00,,,0.00,,2013-03-05 12:22:00,
2013-03-05 07:32:00,24.0,20.0,30.06,East,89,5.0,11.0,86,0.00,,,0.00,,2013-03-05 12:32:00,
2013-03-05 07:42:00,24.0,20.0,30.06,East,89,5.0,11.0,86,0.00,,,0.00,,2013-03-05 12:42:00,
2013-03-05 07:52:00,25.0,21.0,30.05,East,96,4.0,7.0,86,0.00,,,0.00,,2013-03-05 12:52:00,
2013-03-05 08:02:00,25.0,21.0,30.06,East,84,4.0,10.0,86,0.00,,,0.00,,2013-03-05 13:02:00,
2013-03-05 08:12:00,25.0,21.0,30.06,East,84,4.0,10.0,86,0.00,,,0.00,,2013-03-05 13:12:00,
2013-03-05 08:22:00,25.0,21.0,30.06,ESE,117,6.0,9.0,85,0.00,,,0.00,,2013-03-05 13:22:00,
2013-03-05 08:32:00,25.0,21.0,30.06,ENE,61,4.0,13.0,85,0.00,,,0.00,,2013-03-05 13:32:00,
2013-03-05 08:42:00,25.0,21.0,30.06,ENE,61,4.0,13.0,85,0.00,,,0.00,,2013-03-05 13:42:00,
2013-03-05 08:52:00,25.0,21.0,30.06,NE,51,5.0,9.0,85,0.00,,,0.00,,2013-03-05 13:52:00,
2013-03-05 09:02:00,25.0,21.0,30.06,East,87,5.0,10.0,85,0.00,,,0.00,,2013-03-05 14:02:00,
2013-03-05 09:11:00,25.0,21.0,30.06,East,87,5.0,10.0,85,0.00,,,0.00,,2013-03-05 14:11:00,
2013-03-05 09:22:00,25.0,21.0,30.06,East,94,4.0,10.0,84,0.00,,,0.00,,2013-03-05 14:22:00,
2013-03-05 09:32:00,26.0,22.0,30.06,ENE,70,3.0,9.0,85,0.00,,,0.00,,2013-03-05 14:32:00,
2013-03-05 09:42:00,26.0,22.0,30.06,ENE,70,3.0,9.0,85,0.00,,,0.00,,2013-03-05 14:42:00,
2013-03-05 09:52:00,26.0,22.0,30.05,East,96,3.0,12.0,84,0.00,,,0.00,,2013-03-05 14:52:00,
2013-03-05 10:02:00,26.0,22.0,30.05,East,96,3.0,12.0,84,0.00,,,0.00,,2013-03-05 15:02:00,
2013-03-05 10:11:00,26.0,22.0,30.05,East,96,3.0,12.0,84,0.00,,,0.00,,2013-03-05 15:11:00,
2013-03-05 10:22:00,26.0,22.0,30.05,ESE,121,4.0,11.0,83,0.00,,,0.00,,2013-03-05 15:22:00,
2013-03-05 10:32:00,26.0,21.0,30.04,ESE,111,2.0,8.0,82,0.00,,,0.00,,2013-03-05 15:32:00,
2013-03-05 10:42:00,26.0,21.0,30.04,ESE,111,2.0,8.0,82,0.00,,,0.00,,2013-03-05 15:42:00,
2013-03-05 10:52:00,27.0,22.0,30.03,NE,46,5.0,14.0,80,0.00,,,0.00,,2013-03-05 15:52:00,
2013-03-05 11:02:00,27.0,22.0,30.02,ESE,106,5.0,12.0,81,0.00,,,0.00,,2013-03-05 16:02:00,
2013-03-05 11:11:00,27.0,22.0,30.02,ESE,106,5.0,12.0,81,0.00,,,0.00,,2013-03-05 16:11:00,
2013-03-05 11:22:00,27.0,22.0,30.01,East,89,4.0,9.0,80,0.00,,,0.00,,2013-03-05 16:22:00,
2013-03-05 11:32:00,27.0,21.0,30.02,East,84,6.0,16.0,79,0.00,,,0.00,,2013-03-05 16:32:00,
2013-03-05 11:42:00,27.0,21.0,30.02,East,84,6.0,16.0,79,0.00,,,0.00,,2013-03-05 16:42:00,
2013-03-05 11:52:00,29.0,23.0,30.01,NE,51,5.0,10.0,77,0.00,,,0.00,,2013-03-05 16:52:00,
2013-03-05 12:01:00,28.0,21.0,29.99,East,89,6.0,15.0,75,0.00,,,0.00,,2013-03-05 17:01:00,
2013-03-05 12:11:00,28.0,21.0,29.99,East,89,6.0,15.0,75,0.00,,,0.00,,2013-03-05 17:11:00,
2013-03-05 12:22:00,29.0,22.0,29.99,ENE,75,8.0,14.0,75,0.00,,,0.00,,2013-03-05 17:22:00,
2013-03-05 12:32:00,29.0,22.0,29.99,ESE,117,7.0,13.0,74,0.00,,,0.00,,2013-03-05 17:32:00,
2013-03-05 12:42:00,29.0,22.0,29.99,ESE,117,7.0,13.0,74,0.00,,,0.00,,2013-03-05 17:42:00,
2013-03-05 12:52:00,28.0,21.0,29.98,East,94,4.0,13.0,76,0.00,,,0.00,,2013-03-05 17:52:00,
2013-03-05 13:02:00,29.0,22.0,29.98,ESE,107,6.0,12.0,75,0.00,,,0.00,,2013-03-05 18:02:00,
2013-03-05 13:11:00,29.0,22.0,29.98,ESE,107,6.0,12.0,75,0.00,,,0.00,,2013-03-05 18:11:00,
2013-03-05 13:22:00,29.0,22.0,29.97,ENE,63,8.0,13.0,74,0.00,,,0.00,,2013-03-05 18:22:00,
2013-03-05 13:32:00,29.0,22.0,29.96,ESE,108,7.0,13.0,74,0.00,,,0.00,,2013-03-05 18:32:00,
2013-03-05 13:42:00,29.0,22.0,29.96,ESE,108,7.0,13.0,74,0.00,,,0.00,,2013-03-05 18:42:00,
2013-03-05 13:52:00,29.0,23.0,29.95,ESE,106,3.0,12.0,77,0.00,,,0.00,,2013-03-05 18:52:00,
2013-03-05 14:01:00,28.0,22.0,29.94,East,98,5.0,14.0,79,0.00,,,0.00,,2013-03-05 19:01:00,
2013-03-05 14:11:00,28.0,22.0,29.94,East,98,5.0,14.0,79,0.00,,,0.00,,2013-03-05 19:11:00,
2013-03-05 14:21:00,28.0,23.0,29.93,East,98,7.0,13.0,81,0.00,,,0.00,,2013-03-05 19:21:00,
2013-03-05 14:32:00,28.0,23.0,29.92,ENE,60,5.0,14.0,81,0.00,,,0.00,,2013-03-05 19:32:00,
2013-03-05 14:42:00,28.0,23.0,29.92,ENE,60,5.0,14.0,81,0.00,,,0.00,,2013-03-05 19:42:00,
2013-03-05 14:52:00,27.0,22.0,29.91,ESE,105,6.0,12.0,81,0.00,,,0.00,,2013-03-05 19:52:00,
2013-03-05 15:01:00,27.0,23.0,29.89,East,94,7.0,14.0,83,0.00,,,0.00,,2013-03-05 20:01:00,
2013-03-05 15:11:00,28.0,23.0,29.89,ESE,105,4.0,12.0,82,0.00,,,0.00,,2013-03-05 20:11:00,
2013-03-05 15:22:00,28.0,23.0,29.89,ESE,105,4.0,12.0,82,0.00,,,0.00,,2013-03-05 20:22:00,
2013-03-05 15:32:00,29.0,24.0,29.88,ESE,116,3.0,15.0,82,0.00,,,0.00,,2013-03-05 20:32:00,
2013-03-05 15:42:00,29.0,24.0,29.88,ESE,116,3.0,15.0,82,0.00,,,0.00,,2013-03-05 20:42:00,
2013-03-05 15:52:00,29.0,24.0,29.87,ENE,74,4.0,9.0,80,0.00,,,0.00,,2013-03-05 20:52:00,
2013-03-05 16:02:00,29.0,24.0,29.86,ENE,63,4.0,14.0,81,0.00,,,0.00,,2013-03-05 21:02:00,
2013-03-05 16:11:00,29.0,24.0,29.86,ENE,63,4.0,14.0,81,0.00,,,0.00,,2013-03-05 21:11:00,
2013-03-05 16:22:00,29.0,24.0,29.85,East,79,6.0,12.0,81,0.00,,,0.00,,2013-03-05 21:22:00,
2013-03-05 16:32:00,29.0,24.0,29.84,ENE,57,8.0,17.0,81,0.00,,,0.00,,2013-03-05 21:32:00,
2013-03-05 16:42:00,29.0,24.0,29.84,ENE,57,8.0,17.0,81,0.00,,,0.00,,2013-03-05 21:42:00,
2013-03-05 16:52:00,29.0,24.0,29.84,ESE,105,4.0,12.0,81,0.00,,,0.00,,2013-03-05 21:52:00,
2013-03-05 17:01:00,29.0,24.0,29.83,East,84,6.0,21.0,82,0.00,,,0.00,,2013-03-05 22:01:00,
2013-03-05 17:12:00,29.0,24.0,29.83,East,84,6.0,21.0,82,0.00,,,0.00,,2013-03-05 22:12:00,
2013-03-05 17:22:00,29.0,24.0,29.83,East,96,5.0,13.0,82,0.00,,,0.00,,2013-03-05 22:22:00,
2013-03-05 17:32:00,28.0,24.0,29.82,ENE,71,2.0,10.0,83,0.00,,,0.00,,2013-03-05 22:32:00,
2013-03-05 17:42:00,28.0,24.0,29.82,ENE,71,2.0,10.0,83,0.00,,,0.00,,2013-03-05 22:42:00,
2013-03-05 17:52:00,28.0,24.0,29.82,ESE,117,4.0,8.0,83,0.00,,,0.00,,2013-03-05 22:52:00,
2013-03-05 18:01:00,28.0,24.0,29.82,ESE,105,6.0,12.0,83,0.00,,,0.00,,2013-03-05 23:01:00,
2013-03-05 18:11:00,28.0,24.0,29.82,ESE,105,6.0,12.0,83,0.00,,,0.00,,2013-03-05 23:11:00,
2013-03-05 18:22:00,28.0,24.0,29.82,ENE,60,4.0,11.0,83,0.00,,,0.00,,2013-03-05 23:22:00,
2013-03-05 18:32:00,29.0,25.0,29.81,NE,37,5.0,12.0,83,0.00,,,0.00,,2013-03-05 23:32:00,
2013-03-05 18:42:00,29.0,25.0,29.81,NE,37,5.0,12.0,83,0.00,,,0.00,,2013-03-05 23:42:00,
2013-03-05 18:52:00,29.0,25.0,29.81,NE,37,5.0,12.0,83,0.00,,,0.00,,2013-03-05 23:52:00,
2013-03-05 19:02:00,29.0,23.0,29.81,East,82,6.0,-999.0,78,-99.99,,,-99.99,,2013-03-06 00:02:00,
2013-03-05 19:11:00,29.0,23.0,29.81,East,82,6.0,-999.0,78,-99.99,,,-99.99,,2013-03-06 00:11:00,
2013-03-05 19:22:00,29.0,23.0,29.81,NE,51,6.0,13.0,78,0.00,,,0.00,,2013-03-06 00:22:00,
2013-03-05 19:32:00,30.0,24.0,29.80,East,101,8.0,20.0,79,0.00,,,0.00,,2013-03-06 00:32:00,
2013-03-05 19:42:00,30.0,24.0,29.80,East,101,8.0,20.0,79,0.00,,,0.00,,2013-03-06 00:42:00,
2013-03-05 19:52:00,30.0,24.0,29.80,ENE,65,8.0,19.0,78,0.00,,,0.00,,2013-03-06 00:52:00,
2013-03-05 20:02:00,30.0,24.0,29.80,NE,44,9.0,14.0,77,0.00,,,0.00,,2013-03-06 01:02:00,
2013-03-05 20:11:00,30.0,24.0,29.80,NE,44,9.0,14.0,77,0.00,,,0.00,,2013-03-06 01:11:00,
2013-03-05 20:22:00,30.0,24.0,29.79,NNE,26,4.0,16.0,77,0.00,,,0.00,,2013-03-06 01:22:00,
2013-03-05 20:32:00,30.0,24.0,29.80,NE,43,10.0,16.0,77,0.00,,,0.00,,2013-03-06 01:32:00,
2013-03-05 20:42:00,30.0,24.0,29.80,NE,43,10.0,16.0,77,0.00,,,0.00,,2013-03-06 01:42:00,
2013-03-05 20:52:00,30.0,24.0,29.80,ENE,63,8.0,21.0,77,0.00,,,0.00,,2013-03-06 01:52:00,
2013-03-05 21:01:00,30.0,24.0,29.80,ENE,63,8.0,21.0,77,0.00,,,0.00,,2013-03-06 02:01:00,
2013-03-05 21:11:00,30.0,24.0,29.80,ENE,63,8.0,21.0,77,0.00,,,0.00,,2013-03-06 02:11:00,
2013-03-05 21:22:00,30.0,24.0,29.80,East,79,7.0,21.0,78,0.00,,,0.00,,2013-03-06 02:22:00,
2013-03-05 21:32:00,29.0,23.0,29.80,NNE,29,6.0,18.0,78,0.00,,,0.00,,2013-03-06 02:32:00,
2013-03-05 21:42:00,29.0,23.0,29.80,NNE,29,6.0,18.0,78,0.00,,,0.00,,2013-03-06 02:42:00,
2013-03-05 21:52:00,30.0,24.0,29.80,East,82,9.0,15.0,78,0.00,,,0.00,,2013-03-06 02:52:00,
2013-03-05 22:02:00,30.0,24.0,29.80,East,90,9.0,16.0,78,0.00,,,0.00,,2013-03-06 03:02:00,
2013-03-05 22:11:00,30.0,24.0,29.80,East,90,9.0,16.0,78,0.00,,,0.00,,2013-03-06 03:11:00,
2013-03-05 22:22:00,30.0,24.0,29.80,NNE,27,9.0,19.0,78,0.00,,,0.00,,2013-03-06 03:22:00,
2013-03-05 22:32:00,30.0,24.0,29.80,NNE,27,9.0,19.0,78,0.00,,,0.00,,2013-03-06 03:32:00,
2013-03-05 22:42:00,30.0,24.0,29.80,NNE,27,9.0,19.0,78,0.00,,,0.00,,2013-03-06 03:42:00,
2013-03-05 22:52:00,30.0,24.0,29.80,North,8,7.0,16.0,78,0.00,,,0.00,,2013-03-06 03:52:00,
2013-03-05 23:02:00,30.0,24.0,29.80,North,8,7.0,16.0,78,0.00,,,0.00,,2013-03-06 04:02:00,
2013-03-05 23:11:00,30.0,24.0,29.80,North,8,7.0,16.0,78,0.00,,,0.00,,2013-03-06 04:11:00,
2013-03-05 23:22:00,30.0,24.0,29.80,NE,46,6.0,17.0,78,0.00,,,0.00,,2013-03-06 04:22:00,
2013-03-05 23:32:00,30.0,24.0,29.80,NNE,22,7.0,18.0,78,0.00,,,0.00,,2013-03-06 04:32:00,
2013-03-05 23:42:00,30.0,24.0,29.80,NNE,22,7.0,18.0,78,0.00,,,0.00,,2013-03-06 04:42:00,
2013-03-05 23:52:00,29.0,23.0,29.80,NNE,33,10.0,18.0,78,0.00,,,0.00,,2013-03-06 04:52:00,